EW7448 Weather Reports


Display with metric or nautical units.
time (UTC)temp
F
wind
direction
speed
MPH
gust
MPH
rain 1hr
in
rain 24hr
in
rain mn
in
humidity
%
barometer
mb
20260904073017 77 146 0.0 0.0 0.00 0.53 0.00 98 1011.7
20260904071506 77 146 0.0 0.0 0.00 0.53 0.00 98 1011.8
20260904070009 77 146 0.0 0.0 0.00 0.53 0.00 98 1011.9
20260904064513 77 146 0.0 0.0 0.00 0.53 0.00 98 1012.1
20260904063002 77 147 0.0 0.0 0.00 0.53 0.00 98 1012.2
20260904061600 77 146 0.0 0.0 0.00 0.53 0.00 98 1012.3
20260904060058 77 146 0.0 0.0 0.00 0.53 0.00 98 1012.4
20260904054556 77 146 0.0 0.0 0.00 0.53 0.00 98 1012.6
20260904053056 77 146 0.0 0.0 0.00 0.53 0.00 98 1012.7
20260904051554 77 146 0.0 0.0 0.00 0.53 0.00 97 1012.8
20260904050053 77 146 0.0 0.0 0.00 0.53 0.00 97 1012.8
20260904044604 77 147 0.0 0.0 0.00 0.53 0.00 97 1012.8
20260904043056 77 146 0.0 0.0 0.00 0.53 0.00 98 1012.9
20260904041558 77 146 0.0 0.0 0.00 0.53 0.00 97 1012.8
20260904040103 77 146 0.0 0.0 0.00 0.53 0.00 97 1012.8
20260904034548 77 146 0.0 0.0 0.00 0.53 0.53 97 1012.8
20260904033047 77 146 0.0 0.0 0.00 0.53 0.53 96 1012.9
20260904031548 78 146 0.0 0.0 0.00 0.53 0.53 96 1012.9
20260904030046 78 146 0.0 0.0 0.00 0.53 0.53 96 1012.9
20260904024546 78 146 0.0 0.0 0.00 0.53 0.53 96 1013.0
20260904023048 78 167 0.0 1.0 0.00 0.53 0.53 95 1013.1
20260904021544 78 133 0.0 1.0 0.00 0.53 0.53 95 1013.1
20260904020043 79 133 0.0 0.0 0.00 0.53 0.53 95 1013.1
20260904014607 79 132 0.0 1.0 0.00 0.53 0.53 94 1013.1
20260904013043 79 133 0.0 0.0 0.00 0.53 0.53 94 1013.1
20260904011541 80 133 0.0 1.0 0.00 0.53 0.53 94 1012.8
20260904010049 80 133 0.0 0.0 0.00 0.53 0.53 94 1012.6
20260904004541 80 133 0.0 0.0 0.00 0.53 0.53 94 1012.5
20260904003040 81 132 0.0 1.0 0.00 0.53 0.53 94 1012.3
20260904001539 81 138 0.0 2.0 0.00 0.53 0.53 94 1012.6
20260904000038 82 122 0.0 2.0 0.00 0.53 0.53 94 1012.5
20260903234538 82 194 0.0 2.0 0.00 0.53 0.53 94 1012.2
20260903233043 82 131 0.0 3.0 0.00 0.53 0.53 93 1012.0
20260903231536 83 151 0.0 1.0 0.00 0.53 0.53 93 1012.2
20260903230038 83 127 0.0 2.0 0.00 0.53 0.53 92 1012.2
20260903224537 84 155 0.0 1.0 0.00 0.53 0.53 91 1011.9
20260903223034 84 140 0.0 1.0 0.00 0.53 0.53 91 1012.2
20260903221533 84 153 0.0 2.0 0.00 0.53 0.53 90 1012.0
20260903220037 85 172 0.0 3.0 0.00 0.53 0.53 88 1011.8
20260903214536 85 125 0.0 4.0 0.00 0.53 0.53 86 1011.7
20260903213032 87 238 0.0 4.0 0.00 0.53 0.53 84 1011.8
20260903211530 89 127 0.0 5.0 0.00 0.53 0.53 81 1011.9
20260903210031 88 130 0.0 4.0 0.00 0.53 0.53 83 1011.3
20260903204532 87 203 1.0 4.0 0.00 0.53 0.53 86 1010.7
20260903203028 86 154 0.0 6.0 0.00 0.53 0.53 87 1010.7
20260903201528 85 77 0.0 4.0 0.00 0.53 0.53 89 1011.5
20260903200027 85 193 0.0 5.0 0.00 0.53 0.53 92 1011.8
20260903194526 84 130 0.0 4.0 0.00 0.53 0.53 92 1011.5
20260903193027 84 143 0.0 2.0 0.00 0.53 0.53 96 1011.8
20260903191525 82 120 0.0 5.0 0.01 0.53 0.53 97 1011.9
20260903190027 81 16 0.0 1.0 0.09 0.53 0.53 97 1012.1
20260903184525 80 84 0.0 2.0 0.12 0.53 0.53 97 1012.3
20260903183024 80 96 0.0 3.0 0.16 0.52 0.52 97 1012.2
20260903181523 80 128 0.0 2.0 0.48 0.51 0.51 96 1012.4
20260903180030 79 144 0.0 2.0 0.44 0.44 0.44 96 1012.7
20260903174522 80 126 0.0 2.0 0.41 0.41 0.41 95 1012.9
20260903173022 81 122 0.0 2.0 0.36 0.36 0.36 94 1013.0
20260903171527 84 208 0.0 4.0 0.03 0.03 0.03 90 1013.0
20260903170033 87 31 0.0 4.0 0.00 0.00 0.00 84 1012.7
20260903164522 88 41 2.0 8.0 0.00 0.00 0.00 82 1012.8
20260903163023 88 44 2.0 6.0 0.00 0.00 0.00 84 1013.1
20260903161517 88 47 1.0 6.0 0.00 0.00 0.00 84 1013.2
20260903160015 90 203 0.0 1.0 0.00 0.00 0.00 79 1013.3
20260903154516 89 151 0.0 1.0 0.00 0.00 0.00 80 1013.3
20260903153014 89 173 0.0 2.0 0.00 0.00 0.00 81 1013.5
20260903151515 90 275 0.0 3.0 0.00 0.00 0.00 79 1013.6
20260903150032 90 166 0.0 4.0 0.00 0.00 0.00 79 1013.4
20260903144521 90 189 0.0 4.0 0.00 0.00 0.00 80 1013.5
20260903143009 88 219 0.0 1.0 0.00 0.00 0.00 81 1013.3
20260903141504 87 162 0.0 3.0 0.00 0.00 0.00 83 1013.2
20260903140006 87 154 0.0 5.0 0.00 0.00 0.00 82 1013.1
20260903134626 87 152 0.0 1.0 0.00 0.00 0.00 82 1012.9
20260903133103 85 147 0.0 0.0 0.00 0.00 0.00 85 1012.9
20260903131551 83 150 0.0 2.0 0.00 0.00 0.00 88 1012.8
20260903130050 81 172 0.0 1.0 0.00 0.00 0.00 92 1012.9
20260903124552 79 169 0.0 2.0 0.00 0.00 0.00 95 1012.7
20260903123042 78 167 0.0 1.0 0.00 0.00 0.00 96 1013.0
20260903121544 78 177 0.0 1.0 0.00 0.00 0.00 97 1012.8
20260903120051 77 205 0.0 0.0 0.00 0.00 0.00 98 1012.8
20260903114542 76 205 0.0 0.0 0.00 0.01 0.00 98 1012.6
20260903113045 76 206 0.0 0.0 0.00 0.01 0.00 98 1012.3
20260903111539 76 229 0.0 0.0 0.00 0.01 0.00 98 1012.0
20260903110040 76 229 0.0 0.0 0.00 0.01 0.00 97 1011.8
20260903104538 76 229 0.0 0.0 0.00 0.01 0.00 97 1011.6
20260903103038 76 229 0.0 1.0 0.00 0.01 0.00 97 1011.3
20260903101538 76 229 0.0 0.0 0.00 0.01 0.00 97 1011.4
20260903100036 76 229 0.0 0.0 0.00 0.01 0.00 97 1011.4
20260903094542 77 229 0.0 0.0 0.00 0.01 0.00 97 1011.4
20260903093034 77 229 0.0 0.0 0.00 0.01 0.00 97 1011.3
20260903091532 77 229 0.0 1.0 0.00 0.01 0.00 97 1011.2
20260903090032 77 229 0.0 0.0 0.00 0.01 0.00 97 1011.2
20260903084542 77 233 0.0 1.0 0.00 0.01 0.00 97 1011.2
20260903083030 77 220 0.0 1.0 0.00 0.01 0.00 97 1011.2
20260903081529 78 189 0.0 3.0 0.00 0.01 0.00 97 1011.0
20260903080027 78 181 0.0 1.0 0.00 0.01 0.00 97 1011.0
20260903074527 79 164 0.0 0.0 0.00 0.01 0.00 97 1010.9